www.pogodaiklimat.ru
Время
и дата
15:51 19.07
16:51 19.07
17:51 19.07
18:51 19.07
19:51 19.07
20:51 19.07
21:51 19.07
22:51 19.07
23:51 19.07
00:12 20.07
00:51 20.07
01:51 20.07
02:36 20.07
02:51 20.07
03:51 20.07
04:51 20.07
05:42 20.07
05:51 20.07
06:04 20.07
06:51 20.07
07:51 20.07
08:11 20.07
08:51 20.07
09:51 20.07
10:51 20.07
11:51 20.07
12:51 20.07
13:51 20.07
14:51 20.07
15:51 20.07
16:51 20.07
17:51 20.07
18:51 20.07
19:51 20.07
20:51 20.07
21:51 20.07
22:51 20.07
22:54 20.07
23:34 20.07
23:43 20.07
23:51 20.07
00:51 21.07
01:51 21.07
02:51 21.07
03:51 21.07
04:51 21.07
05:51 21.07
06:51 21.07
Ветер
(напр.,м/с)
Видим. Явления Облачность Т
(С)
Тd
(С)
f
(%)
Тe
(С)
Тes
(С)
Комфортность P
(гПа)
Po
(гПа)
Тmin
(С)
Tmax
(С)
R
(мм)
R24
(мм)
S
(см)
З 4 16 км 2/2 360 м +23.9 +18.3 71 +28 +35 душно 1013.6 1013.2 +23.9 +25.6
СЗ 4 16 км 2/2 360 m
[Ac]
+22.8 +18.3 76 +28 +32 душно 1013.3 1012.8
СЗ 4 16 км 2/2 360 m
[Ac]
+22.2 +17.8 76 +27 +29 душно 1013.1 1012.5
СЗ 3 16 км 2/2 360 m
[Ac]
+21.1 +17.8 81 +25 +25 комфорт 1013.4 1012.8
СЗ 4 16 км 2/2 360 м +20.6 +17.8 84 +24 +24 комфорт 1013.7 1013.2
СЗ 3 16 км 2/2 360 м +21.1 +17.8 81 +25 +25 комфорт 1014.0 1013.5
СЗ 2 16 км 2/2 300 м +20.6 +18.3 87 +25 +25 комфорт 1014.0 1013.5 +20.6 +23.9
С 2 16 км 2/2 300 м +20.6 +18.3 87 +25 +25 комфорт 1013.9 1013.2
СЗ 2 16 км 5/5 300 м +20.6 +18.3 87 +25 +25 комфорт 1013.5 1012.8
СЗ 2 16 км 8/8 240 м +20.6 +18.3 87 +25 +25 комфорт 1012.8
С 2 16 км 8/8 240 м +21.1 +18.9 87 +25 +25 комфорт 1013.5 1012.8
С 2 16 км 10/10 210 м +21.1 +18.9 87 +25 +25 комфорт 1013.2 1012.5
С 3 16 км 10/10 180 м +21.1 +18.9 87 +25 +25 комфорт 1012.5
СВ 2 16 км 10/10 180 м +21.1 +18.9 87 +25 +25 комфорт 1013.2 1012.5
нст 2 13 км 10/10 180 м +21.1 +18.9 87 +25 +25 комфорт 1013.2 1012.5 +20.6 +21.1
С 2 13 км 10/10 150 м +20.6 +18.9 90 +25 +25 комфорт 1013.6 1012.8
С 3 8 км дымка 10/10 120 м +20.6 +18.3 87 +25 +25 комфорт 1013.2
СЗ 2 8 км дымка 10/10 120 м +20.6 +18.3 87 +25 +25 комфорт 1013.9 1013.2
С 2 10 км дымка 10/10 150 м +20.6 +18.3 87 +25 +25 комфорт 1013.5
С 3 10 км дымка 10/10 180 м +21.1 +18.9 87 +25 +25 комфорт 1014.2 1013.5
СЗ 3 11 км 8/8 180 m
[Ac]
+21.7 +18.9 84 +27 +27 душно 1014.5 1013.8
З 3 11 км 8/8
[Ac]
+22.2 +18.9 82 +28 +29 душно 1013.8
З 4 11 км 8/5 180 m
[Ac]
+22.2 +18.9 82 +28 +29 душно 1014.6 1013.8
СЗ 4 14 км 5/2 240 m
[Ac]
+24.4 +18.9 71 +29 +34 душно 1014.6 1013.8 +20.6 +24.4
З 5 14 км 5/2 240 m
[Ac]
+24.4 +18.9 71 +29 +35 душно 1014.3 1013.8
З 6 16 км 2/2 240 m
[Ac]
+24.4 +18.3 69 +29 +35 душно 1014.0 1013.5
СЗ 5 16 км 5/2 240 m
[Ac]
+25.0 +18.9 69 +30 +37 душно 1013.5 1012.8
З 5
{9}
16 км 5/2 240 m
[Ac]
+25.0 +18.3 66 +29 +36 душно 1013.3 1012.8
З 4 16 км 5/2 240 m
[Ac]
+23.9 +18.3 71 +28 +35 душно 1012.9 1012.2
З 5 16 км 5/2 240 m
[Ac]
+23.3 +17.8 71 +29 +32 душно 1012.5 1011.8 +23.3 +25.6
СЗ 4 16 км 5/2 240 m
[Ac]
+23.3 +17.8 71 +29 +32 душно 1012.2 1011.5
З 4 16 км 5/2 240 m
[Ac]
+22.8 +17.8 73 +28 +29 душно 1012.0 1011.5
СЗ 3 16 км 5/2 240 m
[Ac]
+21.7 +17.8 78 +26 +26 душно 1012.3 1011.8
СЗ 3 16 км 5/2 240 m
[Ac]
+21.1 +18.3 84 +25 +25 комфорт 1012.8 1012.2
СЗ 3 16 км 5/2 240 m
[Ac]
+20.6 +18.3 87 +25 +25 комфорт 1013.3 1012.8
З 2 16 км 5/2 240 m
[Ac]
+20.6 +18.3 87 +25 +25 комфорт 1013.4 1012.8 +20.6 +24.4
СЗ 2 16 км 5/2 270 m
[Ac]
+20.6 +18.3 87 +25 +25 комфорт 1013.1 1012.5
СЗ 2 16 км 8/8 210 m
[Ac]
+20.6 +18.3 87 +25 +25 комфорт 1012.5
СЗ 2 16 км 8/5 240 m
[Ac]
+20.6 +18.3 87 +25 +25 комфорт 1012.2
СЗ 2 16 км 8/8 240 m
[Ac]
+20.6 +18.3 87 +25 +25 комфорт 1012.2
СЗ 2 16 км 8/8 240 m
[Ac]
+20.6 +18.3 87 +25 +25 комфорт 1012.8 1012.2
СЗ 2 16 км 8/8 240 м +20.6 +18.3 87 +25 +25 комфорт 1012.5 1011.8
СЗ 2 16 км 10/10 240 м +20.6 +18.3 87 +25 +25 комфорт 1012.0 1011.5
З 2 16 км 10/10 240 м +21.1 +18.3 84 +25 +25 комфорт 1012.0 1011.5
штиль 0 16 км 10/10 240 м +20.6 +18.3 87 +24 +24 комфорт 1011.8 1011.1 +20.6 +21.1
СЗ 2 14 км 10/10 240 м +20.6 +18.3 87 +25 +25 комфорт 1012.0 1011.5
штиль 0 14 км 10/10 240 м +21.1 +18.3 84 +25 +25 комфорт 1012.5 1011.8
штиль 0 14 км 10/10 240 м +21.7 +18.3 81 +26 +26 душно 1013.1 1012.5
Местоположение метеостанции San Diego International Airport: широта 32.7336 долгота -117.1831 высота над уровнем моря 5 м.
В архиве по умолчанию представлена погода в Сан-Диего за последние 1-2 суток. Обновление информации о фактической погоде в базе происходит ежечасно! Архивные данные за месяц целиком и за предыдущие месяцы Вы можете получить, выбрав интересующий диапазон дат из раскрывающегося списка и нажав кнопку "Ввод!".
Внимание! Архив погоды МЕТАР в базе сайта по станциям, не включенным в климатический монитор, хранится не более 60 дней. Нет смысла пытаться выбрать более раннюю дату.
*Определитесь, кто Вы:
Внимание! Время в таблицах - местное (без учета летнего времени). Для получения всемирного времени необходимо вычесть поправку, которая равна -8 ч.
Смотрите также архив погоды в соседних городах и на ближайших метеорологических станциях:
Партнеры нашего сайта:      
Пояснения к столбцам:
  • Ветер - указаны скорость ветра в м/с - средняя за 10 мин, порывы в срок и между сроками (в фигурных скобках) и направление, откуда дует ветер: С - северный,
  • СВ - северо-восточный, В - восточный, ЮВ - юго-восточный, Ю - южный, ЮЗ - юго-западный, З - западный, СЗ - северо-западный.
  • Видимость - горизонтальная дальность видимости в метрах или километрах. При видимости от 1 до 10 км при отсутствии осадков обычно наблюдается дымка, при ухудшении видимости до 1 км и менее - туман. В сухую погоду видимость может ухудшаться дымом, пылью или мглою.
  • Явления - указаны атмосферные явления, наблюдавшиеся в срок или в последний час перед сроком; фигурными скобками обозначены явления, наблюдавшиеся между сроками (за 1-3 часа до срока); квадратными скобками обозначены град или гололедные отложения с указанием их диаметра в мм.
  • Облачность - указаны через наклонную черту общая и нижняя облачность в баллах и высота нижней границы облаков в метрах; квадратными скобками обозначены формы облаков: Ci - перистые, Cs - перисто-слоистые, Cc - перисто-кучевые, Ac - высококучевые, As - высокослоистые, Sc - слоисто-кучевые, Ns - слоисто-дождевые, Cu - кучевые, Cb - кучево-дождевые. Подробнее классификацию облаков см. в Атласе облаков (PDF).
  • T - Температура воздуха - температура, измеренная на высоте 2 м над землей.
  • Td - Температура точки росы - температура, при понижении до которой содержащийся в воздухе водяной пар достигнет насыщения.
  • f - Относительная влажность воздуха - влажноcть воздуха, измеренная на высоте 2 м над землей.
  • Te - Эффективная температура - температура, которую ощущает одетый по сезону человек в тени. Характеристика душности погоды. При расчете учитывается влияние влажности воздуха и скорости ветра на теплоощущения человека.
  • Tes - Эффективная температура на солнце - температура, которую ощущает человек, с поправкой на солнечный нагрев. Характеристика знойности погоды. Зависит от высоты солнца над горизонтом, облачности и скорости ветра. Ночью, в пасмурную погоду, а также при ветре 12 м/с и более поправка равна нулю.
  • P - Атмосферное давление - приведенное к уровню моря атмосферное давление.
  • Po - Атмосферное давление - измеренное на уровне метеостанции атмосферное давление.
  • Tmin - Минимальная температура - минимум температуры воздуха на высоте 2 м над землей.
  • Tmax - Максимальная температура - максимум температуры воздуха на высоте 2 м над землей.
  • R - Количество осадков - Количество выпавших осадков за период времени, мм. При наведении курсора мыши на число - период времени, за который выпало указанное количество осадков.
  • R24 - Количество осадков - Количество выпавших осадков за 24 часа, мм.
  • S - Снежный покров - Высота снежного покрова, см. При наведении курсора мыши на число - состояние снежного покрова и степень покрытия местности в баллах.